Location: *
(42.3377°N, 71.0868°W)
Time: 05:06:40
(UTC+00:00)

ARGOS Delta rocket - Pass Details

Date: 09 April 2020
Orbit: 634 x 839 km, 96.4° (Epoch: 30 May)

Event Time Altitude Azimuth Distance (km) Brightness Sun altitude
Rises 23:42:05 0° 160° (SSE) 3,283 6.9 -4.8°
Reaches altitude 10° 23:44:23 10° 158° (SSE) 2,381 6.2 -5.2°
Maximum altitude 23:49:40 69° 76° (ENE) 885 4.2 -6.2°
Drops below altitude 10° 23:55:08 10° 354° (N) 2,462 7.0 -7.1°
Sets 23:57:32 0° 352° (N) 3,403 7.7 -7.6°
